Location: Arthurs Seat
(13.1500°N, 59.6000°W)
Time: 12:51:07
(UTC+00:00)

Yuri Rocket - Pass Details

Date: 25 August 2019
Orbit: 568 x 1914 km, 28.2° (Epoch: 21 September)

Event Time Altitude Azimuth Distance (km) Brightness Sun altitude
Rises 22:39:42 0° 294° (WNW) 3,423 9.0 -7.0°
Reaches altitude 10° 22:42:33 10° 292° (WNW) 2,303 7.7 -7.6°
Maximum altitude 22:47:44 70° 209° (SSW) 681 3.3 -8.9°
Enters shadow 22:51:48 11° 125° (SE) 1,827 4.9 -9.8°
